{"data":{"norad_id":64256,"intl_designator":"2025-120A","name":"STARLINK-34329","alt_names":[],"object_type":"PAYLOAD","status":"ACTIVE","operator":null,"country":"US","launch_date":"2025-06-04","launch_site_code":"AFWTR","launch_vehicle":null,"mission":null,"orbit_class":"UNKNOWN","rcs_meters":null,"size_class":null,"mass_kg":null,"dimensions":null,"purposes":["comms"],"wikipedia_slug":null,"has_3d_model":false,"image_url":null,"decayed_at":null,"tle_current":{"epoch":"2026-05-25T04:55:00.404256Z","epoch_age_seconds":54013,"freshness":"FRESH","line1":"1 64256U 25120A   26145.20486579  .00025625  00000+0  74211-3 0  9999","line2":"2 64256  53.1603 118.9748 0000727  78.1325 281.9759 15.35438419 55669","mean_motion":15.35438419,"eccentricity":7.27e-5,"inclination_deg":53.1603,"raan_deg":118.9748,"arg_perigee_deg":78.1325,"mean_anomaly_deg":281.9759,"bstar":0.00074211,"rev_number":5566,"period_min":93.784288720471,"perigee_km":459.12147484932,"apogee_km":460.11568451061,"semimajor_km":6837.75557968,"source":"CELESTRAK","updated_at":"2026-05-25T13:38:20.356251Z"}}}